Weather History for KHYA - March, 2015

Change the Weather History Date:

Sunday, March 1, 2015

  Actual Average Record
Temperature  
Mean Temperature 18 °F -  
Max Temperature 34 °F 40 °F 56 °F (1972)
Min Temperature 3 °F 23 °F 3 °F (2015)
Degree Days  
Heating Degree Days 47    
Moisture  
Dew Point 18 °F    
Average Humidity 82    
Maximum Humidity 96    
Minimum Humidity 44    
Precipitation  
Precipitation 0.35 in - - ()
Sea Level Pressure  
Sea Level Pressure 30.44 in    
Wind  
Wind Speed 4 mph (South)    
Max Wind Speed 12 mph    
Max Gust Speed -    
Visibility 5 miles    
Events Rain , Snow    
Averages and records for this station are not official NWS values.
T = Trace of Precipitation, MM = Missing Value Source: NWS Daily Summary

Daily Weather History Graph

Daily Weather History Graph

Search for Another Location

Airport or City:

Trip Planner

Search our weather history database for the weather conditions in past years. The results will help you decide how hot, cold, wet, or windy it might be!

Date:

Astronomy

Mar. 01, 2015 Rise Set
Actual Time 6:16 AM EST 5:31 PM EST
Civil Twilight 5:48 AM EST 5:59 PM EST
Nautical Twilight 5:16 AM EST 6:31 PM EST
Astronomical Twilight 4:44 AM EST 7:03 PM EST
Moon 2:01 PM EST (3/1) 3:40 AM EST (3/1)
Length of Visible Light 12h 10m
Length of Day
11h 14m
Waxing Gibbous, 86% of the Moon is Illuminated
Mar 1
Waxing Gibbous
Mar 5
Full
Mar 13
Last Quarter
Mar 20
New
Mar 27
First Quarter

Hourly Weather History & Observations

Time (EST) Temp. Windchill Dew Point Humidity Pressure Visibility Wind Dir Wind Speed Gust Speed Precip Events Conditions
12:56 AM 7.0 °F - 3.0 °F 84% 30.71 in 10.0 mi Calm Calm - N/A   Clear
1:56 AM 6.1 °F - 1.9 °F 83% 30.69 in 10.0 mi Calm Calm - N/A   Clear
2:56 AM 3.9 °F - -0.9 °F 80% 30.67 in 10.0 mi Calm Calm - N/A   Clear
3:56 AM 3.9 °F - -0.9 °F 80% 30.68 in 10.0 mi Calm Calm - N/A   Clear
4:56 AM 3.9 °F - -2.0 °F 76% 30.68 in 10.0 mi Calm Calm - N/A   Clear
5:56 AM 3.0 °F - -0.9 °F 84% 30.67 in 10.0 mi Calm Calm - N/A   Clear
6:56 AM 6.1 °F - 1.0 °F 80% 30.68 in 10.0 mi Calm Calm - N/A   Clear
7:56 AM 16.0 °F - 7.0 °F 68% 30.68 in 10.0 mi Calm Calm - N/A   Scattered Clouds
8:56 AM 21.9 °F - 7.0 °F 53% 30.66 in 10.0 mi Calm Calm - N/A   Partly Cloudy
9:56 AM 26.1 °F 16.8 °F 7.0 °F 44% 30.64 in 10.0 mi SSW 9.2 mph - N/A   Overcast
10:56 AM 27.0 °F 16.7 °F 9.0 °F 47% 30.63 in 10.0 mi SW 11.5 mph - N/A   Mostly Cloudy
11:56 AM 28.0 °F 21.7 °F 10.0 °F 47% 30.58 in 10.0 mi SSW 5.8 mph - N/A   Overcast
12:56 PM 28.0 °F 20.8 °F 12.9 °F 53% 30.55 in 10.0 mi South 6.9 mph - N/A   Overcast
1:56 PM 27.0 °F 18.7 °F 16.0 °F 63% 30.52 in 44.0 mi SSW 8.1 mph - 0.00 in Snow Light Snow
2:53 PM 26.6 °F 17.5 °F 19.4 °F 74% 30.50 in 3.0 mi SSW 9.2 mph - 0.00 in Snow Light Snow
2:56 PM 27.0 °F 17.3 °F 21.0 °F 78% 30.50 in 3.0 mi SSW 10.4 mph - 0.00 in Snow Light Snow
3:08 PM 27.0 °F 18.7 °F 21.0 °F 78% 30.49 in 2.5 mi SSW 8.1 mph - 0.00 in Snow Light Snow
3:50 PM 26.6 °F 19.1 °F 23.0 °F 86% 30.45 in 2.0 mi South 6.9 mph - 0.00 in Snow Light Snow
3:56 PM 27.0 °F 20.5 °F 23.0 °F 85% 30.46 in 2.5 mi South 5.8 mph - 0.00 in Snow Light Snow
4:06 PM 27.0 °F 19.5 °F 23.0 °F 85% 30.44 in 1.8 mi South 6.9 mph - 0.00 in Snow Light Snow
4:13 PM 27.0 °F 18.7 °F 23.0 °F 85% 30.44 in 2.5 mi South 8.1 mph - 0.00 in Snow Light Snow
4:56 PM 27.0 °F 19.5 °F 25.0 °F 92% 30.41 in 1.0 mi South 6.9 mph - 0.01 in Snow Light Snow
5:06 PM 27.0 °F 19.5 °F 25.0 °F 92% 30.40 in 1.0 mi South 6.9 mph - 0.00 in Snow Light Snow
5:56 PM 28.0 °F 20.8 °F 26.1 °F 92% 30.38 in 2.0 mi South 6.9 mph - 0.02 in Snow Light Snow
6:08 PM 28.0 °F 20.8 °F 26.1 °F 92% 30.36 in 1.8 mi South 6.9 mph - 0.00 in Snow Light Snow
6:56 PM 28.0 °F 19.3 °F 27.0 °F 96% 30.35 in 1.0 mi South 9.2 mph - 0.02 in Snow Light Snow
7:46 PM 28.0 °F 21.7 °F 27.0 °F 96% 30.30 in 1.0 mi South 5.8 mph - 0.05 in Snow Light Snow
7:54 PM 28.4 °F 22.2 °F 26.6 °F 93% 30.29 in 1.0 mi South 5.8 mph - 0.06 in Snow Light Snow
7:56 PM 28.0 °F 21.7 °F 27.0 °F 96% 30.30 in 1.0 mi South 5.8 mph - 0.06 in Snow Light Snow
7:58 PM 28.0 °F 21.7 °F 27.0 °F 96% 30.29 in 0.8 mi South 5.8 mph - 0.00 in Snow Light Snow
8:00 PM 28.0 °F 21.7 °F 27.0 °F 96% 30.29 in 1.0 mi South 5.8 mph - 0.00 in Snow Light Snow
8:56 PM 28.9 °F 25.2 °F 28.0 °F 96% 30.25 in 1.0 mi SSE 3.5 mph - 0.07 in Snow Light Snow
9:56 PM 30.0 °F 24.1 °F 28.9 °F 96% 30.21 in 1.2 mi South 5.8 mph - 0.07 in Snow Light Snow
10:20 PM 32.0 °F 26.4 °F 30.0 °F 92% 30.18 in 1.2 mi South 5.8 mph - 0.03 in Snow Light Snow
10:38 PM 32.0 °F 26.4 °F 30.9 °F 96% 30.16 in 3.0 mi South 5.8 mph - 0.05 in Snow Light Snow
10:56 PM 33.1 °F 26.1 °F 32.0 °F 96% 30.15 in 7.0 mi South 8.1 mph - 0.06 in Rain Light Rain
11:08 PM 33.1 °F 25.5 °F 32.0 °F 96% 30.12 in 7.0 mi South 9.2 mph - 0.00 in Rain Light Rain
11:56 PM 34.0 °F 28.0 °F 32.0 °F 92% 30.09 in 6.0 mi SSW 6.9 mph - 0.04 in Rain Light Rain